This is the latest recevied weather packets stored in our database for station/object K9RJT. If no packets are shown the sender has not sent any weather packets the latest 10 day(s).
| Time | Temp. | Humidity | Pressure | Rain* | Wind** | Luminosity | Snow |
|---|---|---|---|---|---|---|---|
| 1777850732 | 26.11° C | 28% | 1006.7 hPa | 0 mm | - | 314 W/m² | - |
| 1777850429 | 26.67° C | 30% | 1006.5 hPa | 0 mm | - | 312 W/m² | - |
| 1777850127 | 26.67° C | 32% | 1006.7 hPa | 0 mm | - | 319 W/m² | - |
| 1777849824 | 25.56° C | 33% | 1006.9 hPa | 0 mm | - | 314 W/m² | - |
| 1777849520 | 25.56° C | 34% | 1006.8 hPa | 0 mm | - | 303 W/m² | - |
| 1777849218 | 25° C | 34% | 1006.9 hPa | 0 mm | - | 262 W/m² | - |
| 1777848915 | 25.56° C | 34% | 1007.4 hPa | 0 mm | - | 252 W/m² | - |
| 1777848610 | 25° C | 37% | 1007.2 hPa | 0 mm | - | 238 W/m² | - |
| 1777848308 | 24.44° C | 37% | 1007.5 hPa | 0 mm | - | 228 W/m² | - |
| 1777848005 | 24.44° C | 38% | 1007.4 hPa | 0 mm | - | 216 W/m² | - |
| 1777847703 | 24.44° C | 37% | 1007.4 hPa | 0 mm | - | 202 W/m² | - |
| 1777847398 | 23.89° C | 40% | 1007.7 hPa | 0 mm | - | 201 W/m² | - |
| 1777847097 | 23.89° C | 43% | 1007.7 hPa | 0 mm | - | 205 W/m² | - |
| 1777846794 | 23.89° C | 42% | 1007.7 hPa | 0 mm | - | 196 W/m² | - |
| 1777846492 | 23.89° C | 42% | 1007.8 hPa | 0 mm | - | 189 W/m² | - |
| 1777846189 | 23.89° C | 43% | 1007.8 hPa | 0 mm | - | 199 W/m² | - |
| 1777845885 | 23.89° C | 42% | 1007.9 hPa | 0 mm | - | 214 W/m² | - |
| 1777845582 | 23.89° C | 40% | 1008 hPa | 0 mm | - | 223 W/m² | - |
| 1777845279 | 23.89° C | 41% | 1007.7 hPa | 0 mm | - | 242 W/m² | - |
| 1777844977 | 23.89° C | 40% | 1007.8 hPa | 0 mm | - | 240 W/m² | - |
| 1777844675 | 23.33° C | 42% | 1008.1 hPa | 0 mm | - | 235 W/m² | - |
| 1777844371 | 23.33° C | 43% | 1008.2 hPa | 0 mm | - | 246 W/m² | - |
| 1777844070 | 23.89° C | 42% | 1008.2 hPa | 0 mm | - | 252 W/m² | - |
| 1777843766 | 23.89° C | 41% | 1008.4 hPa | 0 mm | - | 273 W/m² | - |
| 1777843463 | 24.44° C | 39% | 1008.4 hPa | 0 mm | - | 317 W/m² | - |
* Rain latest hour (hover to see other rain measurements)
** Current wind speed in m/s (hover to see current wind gust speed)